Regional Weather Roundup
Issued by NWS Goodland, KS

Home | Current Version | Previous Version | Text Only | Print | Product List | Glossary Off
Versions: 1 2 3 4 5 6 7 8 9 10 11 12 13 14 15 16 17 18 19 20 21 22 23 24 25 26 27 28 29 30 31 32 33 34 35 36 37 38 39 40 41 42 43 44 45 46 47 48 49 50

000
ASUS43 KGLD 260959
RWRGLD

GOODLAND FORECAST AREA HOURLY WEATHER ROUNDUP
NATIONAL WEATHER SERVICE GOODLAND KS
300 AM MST FRI DEC 26 2014

...OFFICIAL OBSERVATIONS...

CITY           SKY/WX    TMP DP  RH WIND       PRES   REMARKS
GOODLAND KS    CLOUDY    24  22  91 N20       29.87S WCI  10
HILL CITY KS   CLOUDY    30  24  78 N16       29.89S WCI  19
IMPERIAL NEB   CLOUDY    25  21  85 N12       29.91S WCI  14
MCCOOK NEB     CLOUDY    27  22  81 N22G28    29.92R WCI  13
AKRON CO       CLOUDY    19  17  92 N13       29.88R WCI   6
BURLINGTON CO  CLOUDY    24  21  88 N16       29.85R WCI  11
LIMON CO       CLOUDY    17  16  95 N20       29.83S WCI   1
$$

...UNOFFICIAL OBSERVATIONS...

CITY           SKY/WX    TMP DP  RH WIND       PRES   REMARKS
COLBY KS       CLOUDY    27  27 100 N17G24    29.89R WCI  14
NORTON KS      CLOUDY    28  21  74 N15G22    29.88S WCI  17
SHARON SPRINGS   N/A     27  24  86 NE15        N/A  WCI  15
KIT CARSON CO    N/A     24  20  83 MISG        N/A
YUMA CO          N/A     22  18  85 NE15        N/A  WCI   9
$$


USA.gov is the U.S. government's official web portal to all federal, state and local government web resources and services.